Weather History for Pine Belt, MS

Change the Weather History Date:

Sunday, December 9, 2012

  Actual Average Record
Temperature  
Mean Temperature 65 °F -  
Max Temperature 73 °F 59 °F 78 °F (2007)
Min Temperature 57 °F 40 °F 19 °F (2010)
Growing Degree Days 15 (Base 50)    
Moisture  
Dew Point 62 °F    
Average Humidity 85    
Maximum Humidity 94    
Minimum Humidity 73    
Precipitation  
Precipitation 0.00 in - - ()
Sea Level Pressure  
Sea Level Pressure 29.97 in    
Wind  
Wind Speed 7 mph (South)    
Max Wind Speed 13 mph    
Max Gust Speed 16 mph    
Visibility 8 miles    
Events      
Averages and records for this station are not official NWS values.
T = Trace of Precipitation, MM = Missing Value Source: NWS Daily Summary

Daily Weather History Graph

Daily Weather History Graph

Search for Another Location

Airport:

Trip Planner

Search our weather history database for the weather conditions in past years. The results will help you decide how hot, cold, wet, or windy it might be!

Date:

Astronomy

Dec. 09, 2012 Rise Set
Actual Time 6:45 AM CST 4:54 PM CST
Civil Twilight 6:18 AM CST 5:21 PM CST
Nautical Twilight 5:48 AM CST 5:51 PM CST
Astronomical Twilight 5:18 AM CST 6:21 PM CST
Moon 2:29 AM CST (12/9) 1:51 PM CST (12/9)
Length of Visible Light 11h 02m
Length of Day
10h 09m
Waning Crescent, 18% of the Moon is Illuminated
Dec 9
Waning Crescent
Dec 13
New
Dec 19
First Quarter
Dec 28
Full
Jan 4
Last Quarter

Hourly Weather History & Observations

Time (CST) Temp. Dew Point Humidity Pressure Visibility Wind Dir Wind Speed Gust Speed Precip Events Conditions
12:35 AM 57.2 °F 55.4 °F 94% 29.99 in 7.0 mi SE 3.5 mph - N/A   Clear
12:55 AM 57.2 °F 55.4 °F 94% 29.99 in 3.0 mi SSE 5.8 mph - N/A   Mostly Cloudy
1:15 AM 60.8 °F 57.2 °F 88% 29.98 in 1.5 mi South 5.8 mph - N/A   Overcast
1:35 AM 60.8 °F 57.2 °F 88% 29.98 in 1.0 mi South 8.1 mph - N/A   Overcast
1:55 AM 60.8 °F 57.2 °F 88% 29.98 in 2.0 mi South 8.1 mph - N/A   Overcast
2:15 AM 60.8 °F 59.0 °F 94% 29.98 in 3.0 mi South 6.9 mph - N/A   Overcast
2:35 AM 60.8 °F 59.0 °F 94% 29.98 in 5.0 mi South 6.9 mph - N/A   Overcast
2:55 AM 60.8 °F 59.0 °F 94% 29.98 in 5.0 mi South 5.8 mph - N/A   Overcast
3:15 AM 62.6 °F 59.0 °F 88% 29.99 in 6.0 mi SSW 4.6 mph - N/A   Overcast
3:35 AM 62.6 °F 57.2 °F 82% 29.99 in 6.0 mi South 4.6 mph - N/A   Overcast
3:55 AM 62.6 °F 57.2 °F 82% 29.99 in 7.0 mi South 5.8 mph - N/A   Overcast
4:15 AM 62.6 °F 57.2 °F 82% 29.99 in 8.0 mi South 5.8 mph - N/A   Overcast
4:35 AM 62.6 °F 57.2 °F 82% 29.99 in 7.0 mi South 4.6 mph - N/A   Overcast
4:55 AM 62.6 °F 57.2 °F 82% 30.00 in 7.0 mi South 3.5 mph - N/A   Overcast
5:15 AM 62.6 °F 57.2 °F 82% 30.00 in 8.0 mi South 5.8 mph - N/A   Overcast
5:35 AM 62.6 °F 57.2 °F 82% 30.00 in 10.0 mi SSE 4.6 mph - N/A   Overcast
5:55 AM 60.8 °F 57.2 °F 88% 30.02 in 10.0 mi SSW 3.5 mph - N/A   Overcast
6:15 AM 60.8 °F 57.2 °F 88% 30.03 in 10.0 mi SSE 4.6 mph - N/A   Overcast
6:35 AM 60.8 °F 57.2 °F 88% 30.03 in 9.0 mi South 4.6 mph - N/A   Overcast
6:55 AM 60.8 °F 57.2 °F 88% 30.03 in 8.0 mi South 5.8 mph - N/A   Mostly Cloudy
7:15 AM 60.8 °F 57.2 °F 88% 30.03 in 7.0 mi South 3.5 mph - N/A   Mostly Cloudy
7:35 AM 60.8 °F 57.2 °F 88% 30.04 in 5.0 mi South 5.8 mph - N/A   Mostly Cloudy
7:55 AM 62.6 °F 59.0 °F 88% 30.04 in 5.0 mi SSE 4.6 mph - N/A   Overcast
8:15 AM 62.6 °F 59.0 °F 88% 30.04 in 6.0 mi SSE 8.1 mph - N/A   Overcast
8:35 AM 62.6 °F 59.0 °F 88% 30.04 in 10.0 mi SE 5.8 mph - N/A   Overcast
8:55 AM 62.6 °F 60.8 °F 94% 30.04 in 10.0 mi SSE 5.8 mph - N/A   Mostly Cloudy
9:15 AM 64.4 °F 60.8 °F 88% 30.04 in 10.0 mi SE 8.1 mph - N/A   Overcast
9:35 AM 64.4 °F 60.8 °F 88% 30.05 in 10.0 mi SE 6.9 mph - N/A   Overcast
9:55 AM 66.2 °F 60.8 °F 83% 30.04 in 10.0 mi SSE 6.9 mph - N/A   Overcast
10:15 AM 68.0 °F 60.8 °F 78% 30.04 in 10.0 mi SSE 9.2 mph - N/A   Mostly Cloudy
10:35 AM 69.8 °F 62.6 °F 78% 30.03 in 10.0 mi South 12.7 mph - N/A   Mostly Cloudy
10:55 AM 69.8 °F 62.6 °F 78% 30.03 in 10.0 mi South 12.7 mph - N/A   Overcast
11:15 AM 71.6 °F 62.6 °F 73% 30.02 in 10.0 mi SSE 10.4 mph - N/A   Mostly Cloudy
11:35 AM 71.6 °F 62.6 °F 73% 30.01 in 10.0 mi South 9.2 mph - N/A   Overcast
11:55 AM 71.6 °F 62.6 °F 73% 30.00 in 10.0 mi South 8.1 mph - N/A   Overcast
12:15 PM 71.6 °F 62.6 °F 73% 29.99 in 10.0 mi South 9.2 mph - N/A   Mostly Cloudy
12:35 PM 71.6 °F 62.6 °F 73% 29.98 in 10.0 mi South 11.5 mph - N/A   Mostly Cloudy
12:55 PM 71.6 °F 62.6 °F 73% 29.97 in 10.0 mi South 11.5 mph - N/A   Mostly Cloudy
1:15 PM 73.4 °F 64.4 °F 73% 29.96 in 10.0 mi South 9.2 mph - N/A   Mostly Cloudy
1:35 PM 73.4 °F 64.4 °F 73% 29.95 in 10.0 mi South 9.2 mph - N/A   Scattered Clouds
1:55 PM 73.4 °F 64.4 °F 73% 29.94 in 10.0 mi SSE 6.9 mph - N/A   Mostly Cloudy
2:15 PM 69.8 °F 64.4 °F 83% 29.94 in 9.0 mi SSW 3.5 mph - N/A   Overcast
2:35 PM 69.8 °F 66.2 °F 88% 29.94 in 7.0 mi SW 10.4 mph - N/A   Overcast
2:55 PM 71.6 °F 66.2 °F 83% 29.93 in 10.0 mi South 4.6 mph - N/A   Mostly Cloudy
3:15 PM 71.6 °F 66.2 °F 83% 29.94 in 10.0 mi South 9.2 mph - N/A   Scattered Clouds
3:35 PM 71.6 °F 66.2 °F 83% 29.93 in 10.0 mi South 6.9 mph - N/A   Clear
3:55 PM 71.6 °F 66.2 °F 83% 29.93 in 10.0 mi SSE 6.9 mph - N/A   Scattered Clouds
4:15 PM 71.6 °F 66.2 °F 83% 29.93 in 10.0 mi SE 6.9 mph - N/A   Mostly Cloudy
4:35 PM 71.6 °F 66.2 °F 83% 29.93 in 5.0 mi ESE 3.5 mph - N/A   Overcast
4:55 PM 69.8 °F 66.2 °F 88% 29.93 in 10.0 mi South 6.9 mph - N/A   Mostly Cloudy
5:15 PM 69.8 °F 66.2 °F 88% 29.92 in 10.0 mi SSE 9.2 mph - N/A   Mostly Cloudy
5:35 PM 69.8 °F 66.2 °F 88% 29.93 in 10.0 mi South 6.9 mph - N/A   Overcast
5:55 PM 69.8 °F 64.4 °F 83% 29.93 in 10.0 mi South 6.9 mph - N/A   Scattered Clouds
6:15 PM 69.8 °F 66.2 °F 88% 29.93 in 10.0 mi SSE 6.9 mph - N/A   Partly Cloudy
6:35 PM 69.8 °F 66.2 °F 88% 29.94 in 10.0 mi SSE 8.1 mph - N/A   Mostly Cloudy
6:55 PM 68.0 °F 66.2 °F 94% 29.93 in 10.0 mi SSE 5.8 mph - N/A   Scattered Clouds
7:15 PM 68.0 °F 64.4 °F 88% 29.94 in 7.0 mi South 6.9 mph - N/A   Scattered Clouds
7:35 PM 69.8 °F 66.2 °F 88% 29.93 in 10.0 mi South 8.1 mph - N/A   Mostly Cloudy
7:55 PM 68.0 °F 64.4 °F 88% 29.92 in 10.0 mi South 8.1 mph - N/A   Partly Cloudy
8:15 PM 68.0 °F 64.4 °F 88% 29.92 in 10.0 mi South 8.1 mph - N/A   Clear
8:35 PM 68.0 °F 64.4 °F 88% 29.92 in 10.0 mi South 9.2 mph - N/A   Clear
8:55 PM 68.0 °F 64.4 °F 88% 29.91 in 10.0 mi South 11.5 mph - N/A   Partly Cloudy
9:15 PM 68.0 °F 64.4 °F 88% 29.92 in 10.0 mi South 9.2 mph - N/A   Mostly Cloudy
9:35 PM 68.0 °F 64.4 °F 88% 29.91 in 10.0 mi South 9.2 mph 16.1 mph N/A   Overcast
9:55 PM 69.8 °F 64.4 °F 83% 29.90 in 10.0 mi South 6.9 mph - N/A   Overcast
10:15 PM 69.8 °F 66.2 °F 88% 29.92 in 10.0 mi South 10.4 mph - N/A   Overcast
10:35 PM 69.8 °F 66.2 °F 88% 29.92 in 10.0 mi South 9.2 mph - N/A   Overcast
10:55 PM 69.8 °F 66.2 °F 88% 29.93 in 10.0 mi South 6.9 mph - N/A   Overcast
11:15 PM 69.8 °F 66.2 °F 88% 29.92 in 10.0 mi South 9.2 mph - N/A   Overcast
11:35 PM 69.8 °F 64.4 °F 83% 29.92 in 10.0 mi South 11.5 mph - N/A   Mostly Cloudy
11:55 PM 69.8 °F 64.4 °F 83% 29.91 in 10.0 mi South 9.2 mph - N/A   Mostly Cloudy